Location: Drocourt
(49.0571°N, 1.7669°E)
Time: 01:13:48
(UTC+00:00)

BlueWalker 3 - Visible Passes

Search period start: 05 March 2024 00:00
Search period end: 15 March 2024 00:00
Orbit: 485 x 499 km, 53.2° (Epoch: 04 March)

Date Brightness Start Highest point End Pass type
(mag) Time Alt. Az. Time Alt. Az. Time Alt. Az.
05 Mar 4.6 19:41:47 10° W 19:43:41 13° SW 19:45:36 10° SSW visible
06 Mar 4.6 19:17:45 10° W 19:19:45 14° SW 19:21:46 10° SSW visible
07 Mar 4.7 18:53:43 10° W 18:55:49 14° SW 18:57:56 10° SSW visible
08 Mar 4.7 18:29:40 10° W 18:31:52 15° SW 18:34:04 10° SSW visible
